OBJECT A, 59917

Orbit data source: Space-Track

You're viewing an Uncataloged Satellite

Recently launched and/or uncataloged satellites may have evolving metadata. Metadata may include but not limited to: Owner, Maufacturer, Bus, Motor, and Mission.

OBJECT A, 59917 is a Chinese satellite in SSO that was launched on Thu, 30 May 2024 UTC via a GUSHENXING 1 launch vehicle from the Jiuquan Satellite Launch Center, China (JSC). Unknown objects in Earth's orbit typically refer to objects detected orbiting the Earth but have not yet been identified or cataloged. These objects could be anything from previously untracked satellites, spent rocket stages, debris from satellite collisions, or even natural meteoroids temporarily captured by Earth's gravity.

Loading next visibility...
Identifier
59917, 2024-105A
Orbit
SSO
Country
Flag of CNCN / PRC
Related business
None
Manufacturer
Unknown
Mission
Operational Commercial Technology
Bus & Motor
Unknown
Mass
Unknown
Launch date (UTC)
2024-05-30 (2 years ago)
Launch vehicle
GUSHENXING 1
Launch site
Jiuquan Satellite Launch Center, China (JSC)
Object type
Unknown
Shape & HBR
Box + 1 Pan, 2.5 m
Radar Cross Section
5.339 m², Medium (>0.1 m² and < 1m²)

Expand to show TLE details & history
Last TLE update: 23 hours ago

TLE from 23 hours ago
0 OBJECT A
1 59917U 24105A   26172.49564656  .00001873  00000-0  97880-4 0  9991
2 59917  97.5831 187.7377 0012574 206.4082 153.6512 15.17100123113680
Epoch: 2026-06-21T11:53Z
TLE epoch observation values (Epoch: 2026-06-21T11:53:43.862Z)
Latitude
-0.00001°
Longitude
99.60985°
Altitude
525.462 km
Speed
7.596 km/s
True Right ascension
12h 30m 57s
True Declination
0° 00' 00"
Sunlit
Object was in daylight at epoch
Visualization orbit readout
Latitude
Unknown
Longitude
Unknown
Altitude
Unknown
Speed
Unknown
Apparent Right ascension
Unknown
Apparent Declination
Unknown
Sunlit
N/A
Visualization observer readout
Local Sidereal Time
21:31:26
Azimuth
Unknown
Elevation
Unknown
Doppler factor
Unknown
Orbital elements
Apogee altitude
520.251 km
Perigee altitude
502.924 km
Semi-major axis
6,889.724 km
Eccentricity
0.00126
Inclination
97.5831°
RAAN
187.7377°
Arg. of periapsis
206.4082°
True anomaly
153.71506°
Mean anomaly
153.6512°
Eccentric anomaly
153.68314°
Mean motion
3.79525 °/min
Orbital period
94.86 mins
BSTAR
0.00009788
Loading maneuver chart data...
Computing Atmospheric mass density...
Loading historical data...
Loading historical data...
Loading historical data...
Loading historical data...
Loading historical data...
Loading historical data...
Loading historical data...
Other satellites on launch #105 in the year 2024 (2024-05-30 UTC)

Documentation

Showing up to 5 results
|